Wind_Speed
12 10 9 9 8 7 6 5 3 2 1 2 2 2 3 4 4 5 6 5 6 6 6 6 6 6 6 5 6 5 3 3 3 2 1 1 1 1 1 1 1 1 1 2
13 12 11 10 9 8 7 6 5 4 4 3 1 1 2 3 3 3 3 3 3 3 4 4 4 5 5 5 5 4 3 2 1 1 1 1 1 1 2 1 1 2 2 3
15 13 13 11 9 9 9 8 7 7 7 6 4 3 3 3 2 3 2 1 2 2 2 3 3 3 4 5 5 4 3 3 1 1 1 1 1 1 2 2 2 3 4 4
14 15 14 13 12 11 10 10 10 8 8 8 7 6 4 4 3 3 3 3 3 3 3 2 3 3 3 4 5 4 4 3 2 2 2 1 1 2 2 3 3 4 5 5
15 15 16 15 13 13 13 11 11 10 9 10 9 8 6 6 4 4 5 5 4 4 3 3 3 3 4 4 4 5 4 4 3 3 3 3 4 4 4 5 5 5 6 6
15 15 16 15 15 15 14 13 13 13 12 12 11 10 7 6 5 5 6 6 5 5 4 4 4 4 4 5 5 6 5 5 5 5 5 5 5 6 7 7 7 7 8 8
16 16 16 16 17 16 15 14 14 15 15 13 12 12 8 7 7 7 7 6 6 6 5 5 6 5 5 6 6 7 7 7 7 7 7 7 7 8 9 10 9 9 10 11
18 17 16 17 17 17 17 16 16 16 16 14 14 13 10 9 8 8 8 7 7 7 7 6 6 7 7 8 8 8 9 8 8 9 9 9 9 10 10 11 12 12 13 13
19 18 17 17 17 17 17 17 17 17 17 17 17 15 12 10 9 10 9 9 9 8 8 8 9 9 9 9 10 10 11 10 10 9 10 10 11 11 12 12 14 15 16 16
20 20 19 18 18 18 18 18 18 18 18 18 18 16 14 12 11 11 11 11 10 10 10 10 11 11 12 12 12 11 12 13 12 11 11 12 12 13 14 14 15 16 17 18
21 22 21 21 20 20 21 21 21 20 20 20 19 17 15 14 14 14 13 12 12 12 12 12 12 13 14 13 13 13 13 14 13 13 14 14 15 16 16 17 18 19 20 20
22 23 23 23 23 22 22 22 23 23 22 23 22 19 17 17 16 16 16 15 14 14 14 14 14 15 15 14 15 14 14 14 14 16 16 17 18 18 19 20 21 22 23 23
25 26 26 25 25 25 25 24 25 25 25 25 24 21 19 19 19 19 18 18 17 17 17 17 16 17 17 17 17 17 16 17 18 19 19 19 20 21 21 22 23 24 25 26
27 28 28 28 27 27 27 27 26 26 26 26 25 23 22 22 22 21 21 21 20 20 20 19 19 19 20 19 19 20 20 20 20 21 21 22 22 23 23 24 25 26 27 28
28 29 29 29 29 29 29 29 28 27 27 27 27 26 25 25 25 24 24 24 23 23 23 23 22 22 21 21 22 23 23 23 22 23 23 23 24 24 25 26 27 28 28 29
29 30 30 30 29 30 29 29 29 27 27 27 27 27 26 27 26 26 25 25 25 25 25 25 25 24 24 24 25 25 26 26 25 26 27 26 26 26 27 28 29 30 31 31
30 31 31 31 30 31 31 29 29 28 28 27 28 28 28 28 28 27 26 26 26 26 26 27 27 27 27 26 26 27 28 29 29 29 30 30 30 30 30 30 31 32 32 33
31 31 31 31 31 33 30 30 30 29 28 29 29 28 28 29 29 28 28 28 28 27 27 27 28 29 29 29 29 30 31 32 32 32 32 33 32 33 33 34 34 35 34 34
32 32 32 32 32 33 31 31 30 30 30 29 29 29 29 29 29 29 28 28 29 30 30 30 30 30 31 31 32 32 33 33 35 35 35 35 35 35 35 36 36 36 36 36
33 33 33 33 33 33 31 30 29 30 30 29 30 30 30 30 30 29 29 30 31 32 32 32 32 33 33 34 35 35 35 35 35 36 36 36 37 38 38 38 38 37 37 36
33 33 33 34 33 33 32 31 30 31 30 30 31 31 31 31 31 31 31 31 32 33 33 33 33 34 34 35 35 35 36 36 36 37 37 38 39 40 40 40 40 38 38 38
33 33 34 33 33 33 32 32 32 31 31 31 32 32 32 32 32 32 32 32 32 32 33 33 34 35 36 36 37 37 36 37 37 38 39 39 40 41 40 40 39 39 39 39
35 35 34 34 33 33 32 32 32 32 32 32 32 32 33 33 33 33 33 33 34 34 34 35 35 36 36 37 37 37 37 38 38 38 38 38 39 39 39 40 40 39 39 39
35 35 35 34 33 32 31 31 32 32 33 32 32 32 32 32 33 33 33 33 34 34 35 35 35 36 36 37 37 38 38 38 39 39 39 39 39 39 39 39 39 39 39 39
36 35 34 35 34 33 33 33 33 33 32 32 32 32 32 32 32 32 33 34 34 35 36 37 37 37 37 37 38 38 38 38 39 39 39 40 39 39 40 40 40 40 40 40
35 35 35 35 34 34 33 33 33 33 33 33 33 32 32 32 33 33 34 34 35 36 36 36 36 36 37 37 37 37 38 39 40 40 40 40 40 40 40 40 40 40 40 41
Wind_Direction
212 209 212 211 212 218 225 219 206 201 318 353 42 69 51 39 36 31 31 46 59 59 54 51 49 46 43 42 39 35 49 54 70 70 60 35 0 331 290 298 283 289 290 300
220 217 221 221 215 218 227 230 234 241 264 283 280 332 342 1 3 5 16 37 51 50 43 43 40 40 39 34 31 26 26 19 36 45 50 37 354 317 289 288 270 272 276 287
223 221 226 229 227 227 231 237 247 251 260 269 271 278 289 304 326 337 335 355 357 354 10 24 23 28 25 21 18 15 14 9 1 359 342 9 6 337 306 284 267 270 274 277
225 222 227 230 229 234 236 244 253 257 258 267 273 271 270 271 292 309 301 299 310 324 328 337 358 9 8 7 2 358 356 2 351 313 313 311 323 308 297 287 281 272 272 275
228 227 229 233 235 239 240 248 254 256 260 266 272 273 265 263 273 287 289 290 301 307 318 316 329 334 341 343 339 342 337 331 327 313 294 291 292 291 293 289 281 279 279 281
230 228 229 230 235 240 241 249 254 257 262 266 271 274 273 269 272 277 281 288 291 294 296 302 299 303 313 318 319 322 320 314 306 299 291 284 283 284 285 284 279 279 284 286
230 231 231 230 234 240 244 248 255 260 262 266 269 270 276 277 275 278 274 277 279 279 277 280 290 294 299 305 308 310 306 300 297 293 288 281 274 278 280 282 281 282 286 287
232 233 235 235 237 243 246 250 257 265 267 268 268 269 273 277 276 273 272 278 276 276 277 273 279 286 293 297 299 301 299 295 293 293 287 281 276 276 282 281 280 285 286 285
235 234 235 237 237 240 245 252 258 264 270 272 271 271 270 273 278 274 275 276 274 272 275 272 275 281 287 291 293 295 293 286 285 295 293 287 285 286 285 286 286 287 289 286
238 238 238 238 239 243 248 251 256 260 270 273 272 272 272 273 277 276 275 275 268 275 280 275 274 279 284 286 288 290 295 296 291 289 288 288 288 287 286 285 287 289 289 287
241 241 240 241 242 248 249 251 256 260 265 270 273 275 274 277 277 277 276 274 275 279 282 285 283 282 285 284 284 288 293 293 290 286 286 288 289 288 287 286 286 286 286 287
245 246 245 245 246 249 250 253 258 261 265 267 272 275 272 275 277 277 277 280 279 276 277 281 283 287 286 281 284 284 287 288 288 286 286 287 289 288 288 288 286 285 286 285
247 249 250 249 251 252 254 257 260 262 264 266 269 272 271 272 274 277 278 278 278 277 277 278 281 286 285 283 283 283 283 285 287 289 288 287 286 286 286 286 286 285 285 286
249 251 252 254 256 257 259 261 262 264 264 266 268 270 270 273 274 275 276 276 276 276 278 279 281 284 284 283 283 284 286 287 287 288 290 288 287 287 287 287 287 286 285 285
250 252 253 255 257 259 262 263 263 265 266 269 269 270 270 272 272 274 275 276 276 276 277 280 281 280 282 284 287 286 285 287 288 286 287 286 286 287 287 287 287 287 287 285
251 253 255 257 259 260 263 262 261 263 266 268 268 268 268 269 271 273 274 274 274 275 276 277 278 279 281 285 285 283 281 284 285 284 285 285 285 285 285 286 287 286 286 284
253 254 256 259 260 261 261 263 263 265 266 268 268 268 267 268 270 270 271 271 272 271 273 277 281 282 282 284 286 283 282 283 282 283 284 283 284 284 285 286 287 288 287 285
254 256 258 259 260 261 263 264 265 266 269 270 269 271 268 267 267 269 269 269 271 273 275 277 280 282 282 284 285 285 285 286 285 283 284 282 283 284 284 286 287 287 286 284
254 256 258 260 261 263 264 265 267 267 267 269 270 268 268 267 267 267 268 269 271 272 274 276 279 281 281 282 284 285 285 286 286 284 285 283 285 287 286 286 287 286 285 284
256 256 257 260 263 265 266 266 267 267 267 269 270 269 267 266 266 267 268 268 269 270 272 275 277 279 281 283 283 283 285 285 285 285 285 286 287 287 287 288 287 286 285 285
254 254 257 260 263 266 267 267 267 266 268 269 269 269 268 267 267 268 268 269 270 270 271 274 276 279 282 284 284 285 285 285 285 285 285 286 286 287 287 287 286 286 286 286
254 255 256 258 260 264 267 267 267 268 268 267 268 268 268 269 268 268 269 269 271 271 273 274 276 279 282 284 285 284 284 284 285 286 286 286 287 288 288 288 288 287 286 286
254 255 257 257 260 262 264 264 266 267 268 268 269 269 269 270 269 269 268 269 273 274 275 276 277 279 282 284 285 285 285 285 286 286 288 289 289 290 290 290 289 288 287 286
255 257 258 259 260 261 262 264 266 268 271 271 271 269 270 270 270 269 270 272 273 274 276 277 279 280 282 283 284 285 286 286 286 287 289 290 291 291 291 291 291 290 289 288
256 257 259 260 260 260 261 264 267 269 271 271 271 270 271 271 271 272 273 275 276 277 278 278 279 280 281 282 283 284 285 286 286 289 289 290 292 292 293 293 292 291 289 288
255 257 259 260 261 261 262 264 266 268 270 271 272 272 271 272 272 273 275 279 281 281 278 279 280 280 282 283 283 284 286 288 289 289 290 291 292 293 293 292 291 290 289 288
Height
5910 5913 5913 5914 5915 5916 5916 5917 5917 5917 5917 5917 5916 5916 5916 5916 5915 5915 5914 5913 5913 5912 5912 5911 5910 5910 5909 5908 5907 5907 5906 5906 5906 5905 5905 5905 5905 5905 5905 5905 5905 5905 5905 5905
5910 5911 5912 5913 5914 5915 5915 5916 5916 5917 5917 5916 5916 5916 5916 5916 5916 5915 5915 5914 5913 5913 5912 5911 5910 5910 5909 5908 5908 5907 5907 5906 5906 5906 5905 5905 5905 5905 5905 5905 5905 5905 5904 5904
5908 5911 5910 5912 5912 5914 5915 5915 5916 5916 5916 5915 5916 5916 5916 5916 5916 5915 5915 5914 5913 5912 5912 5911 5910 5910 5909 5908 5908 5907 5907 5906 5905 5906 5905 5905 5905 5905 5905 5905 5904 5904 5904 5904
5906 5908 5908 5910 5911 5912 5913 5914 5914 5914 5914 5914 5915 5915 5916 5915 5915 5915 5914 5914 5913 5912 5911 5910 5910 5909 5909 5908 5908 5907 5907 5906 5905 5905 5905 5905 5905 5904 5904 5904 5904 5904 5903 5903
5904 5905 5906 5908 5909 5910 5911 5912 5912 5912 5912 5913 5913 5913 5915 5914 5914 5914 5914 5913 5912 5911 5911 5910 5909 5909 5908 5908 5907 5907 5906 5906 5905 5905 5905 5904 5904 5904 5904 5903 5903 5902 5902 5901
5901 5902 5904 5905 5907 5908 5909 5910 5910 5910 5911 5911 5912 5911 5913 5912 5913 5913 5912 5912 5911 5910 5910 5909 5909 5908 5907 5907 5906 5906 5906 5905 5904 5904 5903 5903 5903 5903 5903 5902 5901 5901 5900 5900
5898 5900 5901 5903 5904 5905 5907 5908 5908 5908 5908 5909 5909 5909 5911 5910 5911 5911 5911 5910 5909 5909 5908 5908 5907 5907 5907 5906 5905 5905 5904 5903 5903 5902 5902 5901 5901 5901 5901 5900 5900 5899 5898 5898
5895 5898 5899 5900 5902 5903 5904 5905 5906 5906 5906 5907 5907 5907 5909 5908 5908 5908 5909 5908 5908 5907 5906 5906 5906 5905 5905 5904 5903 5903 5902 5901 5901 5900 5899 5899 5899 5898 5898 5898 5897 5896 5896 5895
5892 5895 5896 5897 5898 5900 5901 5902 5903 5903 5903 5903 5904 5904 5906 5905 5906 5906 5906 5906 5905 5905 5904 5904 5903 5903 5903 5902 5901 5900 5899 5899 5898 5898 5897 5896 5896 5896 5895 5895 5894 5893 5892 5892
5889 5891 5893 5894 5895 5896 5898 5898 5899 5899 5899 5899 5900 5901 5902 5902 5903 5903 5904 5903 5903 5902 5902 5901 5901 5900 5900 5899 5898 5897 5897 5896 5895 5894 5894 5893 5893 5892 5891 5891 5890 5889 5889 5888
5885 5887 5889 5890 5891 5892 5894 5895 5895 5895 5895 5896 5896 5899 5899 5898 5899 5900 5900 5900 5900 5900 5899 5898 5897 5897 5896 5895 5895 5894 5893 5892 5892 5891 5890 5890 5889 5888 5887 5887 5886 5885 5884 5883
5880 5882 5883 5885 5887 5888 5889 5890 5891 5892 5891 5891 5891 5896 5894 5894 5895 5896 5896 5896 5896 5896 5895 5895 5894 5893 5892 5892 5891 5890 5889 5888 5888 5887 5886 5885 5884 5883 5883 5882 5881 5880 5879 5878
5875 5877 5878 5880 5883 5883 5884 5884 5885 5886 5886 5886 5887 5891 5890 5890 5890 5891 5891 5891 5891 5891 5891 5890 5890 5889 5888 5887 5886 5885 5885 5884 5883 5882 5881 5880 5879 5878 5877 5876 5875 5874 5873 5871
5870 5871 5873 5875 5876 5877 5878 5879 5880 5881 5881 5881 5882 5884 5884 5885 5885 5885 5886 5886 5886 5886 5886 5885 5885 5884 5883 5882 5881 5880 5879 5879 5878 5877 5876 5875 5874 5872 5871 5870 5868 5867 5866 5864
5863 5865 5866 5868 5870 5871 5872 5873 5874 5875 5875 5876 5877 5877 5878 5879 5880 5880 5880 5880 5880 5880 5880 5879 5879 5878 5877 5876 5876 5875 5874 5873 5872 5871 5870 5869 5867 5866 5864 5863 5861 5860 5858 5857
5857 5859 5860 5861 5863 5864 5865 5866 5867 5868 5869 5869 5870 5871 5872 5872 5873 5873 5873 5874 5874 5874 5873 5873 5872 5872 5871 5870 5870 5869 5868 5866 5866 5865 5863 5861 5860 5858 5857 5855 5853 5852 5850 5848
5851 5852 5853 5854 5856 5856 5857 5859 5860 5861 5862 5862 5863 5865 5864 5865 5865 5866 5866 5866 5867 5867 5867 5866 5865 5865 5864 5864 5863 5861 5860 5859 5858 5856 5855 5853 5852 5850 5848 5847 5845 5843 5842 5840
5843 5844 5846 5847 5849 5849 5853 5852 5853 5853 5854 5855 5856 5857 5857 5857 5858 5858 5858 5859 5859 5859 5859 5858 5858 5857 5856 5855 5854 5853 5851 5850 5849 5847 5846 5844 5843 5841 5839 5837 5835 5834 5832 5830
5835 5837 5838 5839 5840 5841 5844 5845 5845 5846 5847 5848 5848 5849 5849 5849 5850 5850 5850 5851 5851 5851 5851 5850 5849 5848 5848 5846 5845 5844 5842 5841 5839 5837 5835 5834 5833 5831 5829 5827 5825 5823 5822 5820
5827 5829 5831 5831 5832 5833 5837 5838 5837 5838 5838 5840 5840 5840 5841 5841 5842 5843 5842 5842 5842 5842 5842 5841 5841 5840 5838 5837 5836 5834 5832 5830 5829 5827 5826 5824 5822 5820 5818 5816 5815 5813 5811 5809
5820 5821 5822 5823 5824 5825 5828 5829 5830 5831 5832 5832 5831 5832 5832 5833 5833 5834 5833 5833 5833 5833 5832 5831 5831 5830 5828 5827 5825 5824 5822 5820 5818 5817 5815 5813 5811 5809 5807 5805 5803 5801 5800 5798
5811 5813 5814 5815 5817 5819 5819 5820 5822 5822 5822 5822 5822 5823 5823 5824 5824 5824 5824 5823 5823 5823 5822 5822 5821 5819 5818 5816 5815 5813 5812 5810 5808 5806 5804 5802 5800 5797 5795 5793 5791 5790 5788 5786
5802 5805 5805 5808 5810 5810 5811 5812 5812 5812 5813 5813 5814 5814 5814 5814 5815 5815 5814 5814 5814 5813 5813 5812 5810 5809 5808 5806 5804 5803 5801 5799 5797 5795 5792 5790 5788 5785 5783 5781 5779 5777 5776 5774
5794 5795 5797 5798 5800 5801 5802 5803 5803 5803 5804 5804 5804 5805 5805 5805 5805 5805 5805 5804 5803 5803 5802 5801 5800 5799 5797 5796 5794 5792 5790 5788 5786 5784 5781 5779 5776 5774 5772 5770 5767 5765 5763 5761
5785 5787 5788 5790 5791 5792 5793 5794 5795 5795 5795 5795 5795 5795 5795 5795 5795 5795 5795 5794 5793 5793 5792 5790 5789 5788 5787 5785 5783 5781 5779 5777 5775 5773 5770 5768 5765 5762 5759 5757 5755 5753 5751 5749
5777 5779 5780 5781 5782 5784 5785 5785 5785 5786 5786 5786 5785 5785 5785 5785 5785 5785 5784 5784 5783 5782 5781 5779 5778 5777 5776 5774 5772 5770 5768 5766 5764 5762 5759 5756 5754 5751 5748 5745 5743 5740 5738 5736